Regional Weather Roundup
Issued by NWS

Home | Current Version | Previous Version | Text Only | Print | Product List | Glossary On
Versions: 1 2 3 4 5 6 7 8 9 10 11 12 13 14 15 16 17 18 19 20 21 22 23 24 25 26 27 28 29 30 31 32 33 34 35 36 37 38 39 40 41 42 43 44 45 46 47 48 49 50
000
ASUS44 KMEG 242310
RWRTN
TENNESSEE HOURLY STATE WEATHER ROUNDUP
NATIONAL WEATHER SERVICE MEMPHIS TN
600 PM CDT SUN MAY 24 2015

TNZ002-004-019-021-049-052-054-088>092-250000-
WEST TENNESSEE

CITY           SKY/WX    TMP DP  RH WIND       PRES   REMARKS
MEMPHIS INTL   TSTM      73  66  78 SW20G31   29.99R
NWS MEMPHIS      N/A     84 N/A N/A MISG        N/A
JACKSON        PTSUNNY   82  68  62 SE8G17    30.00F
DYERSBURG      MOSUNNY   82  57  42 S9G20     29.97F
PARIS          MOSUNNY   73  70  88 S5        30.04R
LEXINGTON      SUNNY     81  68  65 SE9       30.03F
$$

TNZ008-025-027-028-033-062-065-066-250000-
NORTH MIDDLE TENNESSEE

CITY           SKY/WX    TMP DP  RH WIND       PRES   REMARKS
NASHVILLE      PTSUNNY   82  64  54 S16G22    30.10F
CLARKSVILLE    MOSUNNY   81  65  58 S13G20    30.05F
SMYRNA         MOSUNNY   82  65  56 S14G21    30.12F
COOKEVILLE     SUNNY     81  63  54 S9        30.16F
CROSSVILLE     SUNNY     76  54  46 S10       30.23S
$$

TNZ061-075-076-078-094-096-097-250000-
SOUTH MIDDLE TENNESSEE

CITY           SKY/WX    TMP DP  RH WIND       PRES   REMARKS
FAYETTEVILLE   MOSUNNY  N/A N/A N/A MISG      30.14S
TULLAHOMA      MOSUNNY   79  63  57 SE9       30.16F
WINCHESTER     SUNNY     79  64  61 SE10      30.16F
MCMINNVILLE    SUNNY     81  63  54 SE8       30.16F
COLUMBIA       MOSUNNY   82  68  61 SE9       30.08F
SHELBYVILLE    MOSUNNY   81  66  61 S12       30.14F
$$

TNZ017-018-042-046-047-250000-
NORTHEAST TENNESSEE

CITY           SKY/WX    TMP DP  RH WIND       PRES   REMARKS
TRI CITIES     MOSUNNY   81  48  31 SE8       30.23F
ELIZABETHTON   CLEAR     77  50  38 SE6       30.25F
$$

TNZ012-013-036-069-073-074-250000-
CENTRAL EAST TENNESSEE

CITY           SKY/WX    TMP DP  RH WIND       PRES   REMARKS
KNOXVILLE      MOSUNNY   82  54  37 W7        30.19F
OAK RIDGE      SUNNY     83  53  35 S6        30.20F
GATLINBURG     CLEAR     81  54  39 CALM      30.18F
MORRISTOWN     CLEAR     82  55  39 N5        30.21F
$$

TNZ083-085-099-250000-
SOUTHEAST TENNESSEE

CITY           SKY/WX    TMP DP  RH WIND       PRES   REMARKS
CHATTANOOGA    PTSUNNY   81  59  47 SE8       30.18F
$$

SKY/WX REPORTED AS FAIR MEANS FEW OR NO CLOUDS BELOW
12 THOUSAND FEET.



USA.gov is the U.S. government's official web portal to all federal, state and local government web resources and services.